{"data":{"norad_id":60527,"epoch":"2026-05-25T03:34:45.302880Z","epoch_age_seconds":59390,"freshness":"FRESH","line1":"1 60527U 24149BM  26145.14913545  .00012041  00000+0  35089-3 0  9995","line2":"2 60527  97.3724 226.6396 0006924  29.0367 331.1260 15.35508737 98632","mean_motion":15.35508737,"eccentricity":0.0006924,"inclination_deg":97.3724,"raan_deg":226.6396,"arg_perigee_deg":29.0367,"mean_anomaly_deg":331.126,"bstar":0.00035089,"rev_number":9863,"period_min":93.779993906997,"perigee_km":454.67550583672,"apogee_km":464.14414067756,"semimajor_km":6837.5468232571,"source":"CELESTRAK","updated_at":"2026-05-25T13:38:02.125667Z"}}